CCM32A LFKB-LFPO

Flight info

Callsign CCM32A
Flight time 1h 24m
Altitude 34000
Route MEGER Z911 OLETI DCT AOSTA DCT ORSUD DCT MOLUS DCT UNKIR DCT DJL
Aircraft A320/M-SDE3FGHIRWY/LB1

Departure

Time 2026-04-30 19:49
Airport Bastia-Poretta International airport (LFKB)

Arrival

Time 2026-04-30 21:14
Airport Paris-Orly Airport (LFPO)
Time Latitude Longitude Altitude Speed Heading
2026-04-30 19:20 42.54676 9.48232 36 ft 0 kts 283°
2026-04-30 19:44 42.54676 9.48231 35 ft 1 kts 283°
2026-04-30 19:44 42.54688 9.48223 34 ft 1 kts 359°
2026-04-30 19:44 42.54691 9.48242 34 ft 4 kts 80°
2026-04-30 19:45 42.54694 9.48277 35 ft 3 kts 85°
2026-04-30 19:45 42.54691 9.48319 34 ft 5 kts 108°
2026-04-30 19:45 42.54637 9.48359 35 ft 10 kts 163°
2026-04-30 19:45 42.54573 9.48386 35 ft 9 kts 162°
2026-04-30 19:46 42.54516 9.48410 35 ft 8 kts 162°
2026-04-30 19:46 42.54460 9.48421 35 ft 10 kts 182°
2026-04-30 19:46 42.54390 9.48419 33 ft 10 kts 165°
2026-04-30 19:46 42.54295 9.48460 35 ft 16 kts 162°
2026-04-30 19:47 42.54224 9.48489 34 ft 7 kts 163°
2026-04-30 19:47 42.54218 9.48492 35 ft 0 kts 163°
2026-04-30 19:47 42.54167 9.48528 35 ft 10 kts 142°
2026-04-30 19:47 42.54131 9.48602 35 ft 9 kts 106°
2026-04-30 19:48 42.54130 9.48681 35 ft 8 kts 81°
2026-04-30 19:48 42.54158 9.48750 34 ft 8 kts 49°
2026-04-30 19:48 42.54183 9.48810 36 ft 7 kts 69°
2026-04-30 19:48 42.54208 9.48817 36 ft 3 kts 338°
2026-04-30 19:49 42.54351 9.48757 32 ft 55 kts 342°
2026-04-30 19:49 42.55906 9.48100 172 ft 157 kts 342°
2026-04-30 19:49 42.56974 9.47685 766 ft 161 kts 347°
2026-04-30 19:50 42.58072 9.47421 1506 ft 159 kts 356°
2026-04-30 19:50 42.59196 9.47316 2029 ft 173 kts
2026-04-30 19:50 42.60490 9.47397 2392 ft 195 kts
2026-04-30 19:50 42.61892 9.47737 2734 ft 220 kts 14°
2026-04-30 19:51 42.63430 9.48417 3191 ft 244 kts 21°
2026-04-30 19:51 42.65044 9.49252 4018 ft 251 kts 21°
2026-04-30 19:51 42.66689 9.50098 4970 ft 255 kts 21°
2026-04-30 19:51 42.68361 9.50957 5932 ft 257 kts 20°
2026-04-30 19:52 42.70041 9.51820 6890 ft 259 kts 20°
2026-04-30 19:52 42.71749 9.52693 7737 ft 264 kts 18°
2026-04-30 19:52 42.73529 9.53379 8555 ft 268 kts 14°
2026-04-30 19:52 42.75347 9.54045 9448 ft 272 kts 13°
2026-04-30 19:53 42.77187 9.54718 10298 ft 275 kts 13°
2026-04-30 19:53 42.79034 9.55398 11025 ft 282 kts 13°
2026-04-30 19:53 42.81010 9.56126 11295 ft 306 kts 13°
2026-04-30 19:53 42.83132 9.56909 11756 ft 320 kts 13°
2026-04-30 19:54 42.85295 9.57707 12502 ft 325 kts 13°
2026-04-30 19:54 42.87491 9.58520 13254 ft 329 kts 13°
2026-04-30 19:54 42.89713 9.59345 14030 ft 332 kts 13°
2026-04-30 19:54 42.91957 9.60183 14638 ft 338 kts 13°
2026-04-30 19:55 42.94213 9.61026 15323 ft 340 kts 13°
2026-04-30 19:55 42.96541 9.61622 15960 ft 341 kts
2026-04-30 19:55 42.98904 9.61356 16606 ft 343 kts 346°
2026-04-30 19:55 43.01142 9.60198 17248 ft 346 kts 331°
2026-04-30 19:56 43.03080 9.58225 17887 ft 351 kts 317°
2026-04-30 19:56 43.04802 9.55902 18569 ft 353 kts 317°
2026-04-30 19:56 43.06556 9.53538 19113 ft 356 kts 317°
2026-04-30 19:56 43.08334 9.51149 19697 ft 358 kts 317°
2026-04-30 19:57 43.09540 9.49530 20093 ft 360 kts 317°
2026-04-30 19:57 43.11322 9.47139 20622 ft 364 kts 317°
2026-04-30 19:57 43.13140 9.44696 21098 ft 369 kts 317°
2026-04-30 19:57 43.14982 9.42219 21626 ft 373 kts 317°
2026-04-30 19:58 43.16846 9.39711 22163 ft 377 kts 317°
2026-04-30 19:58 43.18726 9.37177 22711 ft 380 kts 317°
2026-04-30 19:58 43.20597 9.34651 23229 ft 383 kts 317°
2026-04-30 19:58 43.22505 9.32074 23748 ft 387 kts 317°
2026-04-30 19:59 43.24430 9.29467 24196 ft 389 kts 317°
2026-04-30 19:59 43.26353 9.26856 24673 ft 390 kts 317°
2026-04-30 19:59 43.30218 9.21601 25626 ft 391 kts 316°
2026-04-30 20:00 43.32223 9.19077 26066 ft 391 kts 324°
2026-04-30 20:00 43.34591 9.17229 26493 ft 392 kts 338°
2026-04-30 20:00 43.37221 9.16163 26909 ft 395 kts 345°
2026-04-30 20:00 43.39892 9.15249 27312 ft 396 kts 344°
2026-04-30 20:01 43.45241 9.13403 28083 ft 400 kts 343°
2026-04-30 20:01 43.47950 9.12461 28465 ft 401 kts 343°
2026-04-30 20:01 43.50663 9.11515 28841 ft 403 kts 343°
2026-04-30 20:02 43.56130 9.09605 29550 ft 406 kts 343°
2026-04-30 20:02 43.58883 9.08640 29850 ft 409 kts 343°
2026-04-30 20:03 43.64409 9.06694 30389 ft 414 kts 343°
2026-04-30 20:03 43.67206 9.05710 30658 ft 416 kts 343°
2026-04-30 20:03 43.70013 9.04727 30917 ft 417 kts 343°
2026-04-30 20:03 43.72829 9.03739 31168 ft 418 kts 343°
2026-04-30 20:04 43.75660 9.02741 31408 ft 420 kts 343°
2026-04-30 20:04 43.78493 9.01742 31667 ft 420 kts 343°
2026-04-30 20:04 43.81251 9.00461 31999 ft 417 kts 335°
2026-04-30 20:05 43.86313 8.96581 32648 ft 414 kts 329°
2026-04-30 20:05 43.88771 8.94593 32980 ft 413 kts 329°
2026-04-30 20:05 43.93742 8.90590 33653 ft 411 kts 329°
2026-04-30 20:06 43.96211 8.88598 34004 ft 410 kts 329°
2026-04-30 20:06 43.98673 8.86610 34323 ft 409 kts 329°
2026-04-30 20:06 44.01109 8.84640 34588 ft 409 kts 329°
2026-04-30 20:06 44.03564 8.82650 34838 ft 409 kts 329°
2026-04-30 20:07 44.06025 8.80652 35080 ft 409 kts 329°
2026-04-30 20:07 44.08488 8.78648 35301 ft 410 kts 329°
2026-04-30 20:07 44.13429 8.74628 35699 ft 412 kts 329°
2026-04-30 20:08 44.15904 8.72611 35888 ft 412 kts 329°
2026-04-30 20:08 44.18393 8.70580 36050 ft 414 kts 329°
2026-04-30 20:08 44.20856 8.68568 36209 ft 415 kts 329°
2026-04-30 20:09 44.25830 8.64505 36244 ft 412 kts 329°
2026-04-30 20:09 44.33234 8.58441 36238 ft 413 kts 329°
2026-04-30 20:10 44.40673 8.52312 36247 ft 413 kts 329°
2026-04-30 20:11 44.48118 8.46174 36270 ft 414 kts 329°
2026-04-30 20:11 44.53057 8.42094 36292 ft 414 kts 329°
2026-04-30 20:12 44.60499 8.35933 36288 ft 414 kts 329°
2026-04-30 20:13 44.65462 8.31807 36278 ft 413 kts 329°
2026-04-30 20:13 44.70390 8.27697 36281 ft 414 kts 329°
2026-04-30 20:14 44.75359 8.23550 36280 ft 415 kts 329°
2026-04-30 20:14 44.80333 8.19404 36278 ft 415 kts 329°
2026-04-30 20:15 44.85279 8.15268 36276 ft 416 kts 329°
2026-04-30 20:15 44.90259 8.11084 36278 ft 416 kts 329°
2026-04-30 20:16 44.95253 8.06882 36278 ft 417 kts 329°
2026-04-30 20:16 45.00246 8.02671 36262 ft 418 kts 329°
2026-04-30 20:17 45.05249 7.98444 36271 ft 419 kts 329°
2026-04-30 20:17 45.10236 7.94223 36271 ft 420 kts 329°
2026-04-30 20:18 45.15265 7.89969 36281 ft 420 kts 329°
2026-04-30 20:18 45.20297 7.85706 36289 ft 421 kts 329°
2026-04-30 20:19 45.25321 7.81414 36289 ft 422 kts 329°
2026-04-30 20:19 45.30328 7.77135 36284 ft 422 kts 329°
2026-04-30 20:20 45.35373 7.72825 36284 ft 423 kts 329°
2026-04-30 20:20 45.40400 7.68526 36284 ft 424 kts 329°
2026-04-30 20:21 45.45467 7.64182 36285 ft 425 kts 329°
2026-04-30 20:21 45.50543 7.59812 36284 ft 425 kts 329°
2026-04-30 20:22 45.55577 7.55472 36287 ft 426 kts 330°
2026-04-30 20:22 45.60657 7.51086 36293 ft 426 kts 330°
2026-04-30 20:23 45.65743 7.46689 36281 ft 426 kts 330°
2026-04-30 20:23 45.70772 7.42316 36276 ft 426 kts 329°
2026-04-30 20:24 45.75845 7.37896 36269 ft 425 kts 330°
2026-04-30 20:24 45.80866 7.33473 36265 ft 426 kts 328°
2026-04-30 20:25 45.88153 7.26102 36275 ft 428 kts 325°
2026-04-30 20:26 45.95388 7.18539 36268 ft 427 kts 326°
2026-04-30 20:26 46.02628 7.11139 36225 ft 427 kts 326°
2026-04-30 20:27 46.12372 7.01170 36198 ft 429 kts 326°
2026-04-30 20:28 46.22078 6.91149 36220 ft 430 kts 327°
2026-04-30 20:30 46.34192 6.78571 36200 ft 430 kts 326°
2026-04-30 20:31 46.47221 6.60804 36218 ft 439 kts 302°
2026-04-30 20:32 46.54815 6.41583 36208 ft 440 kts 301°
2026-04-30 20:33 46.59392 6.29942 36211 ft 443 kts 301°
2026-04-30 20:34 46.63929 6.18291 36223 ft 443 kts 301°
2026-04-30 20:35 46.68495 6.06561 36208 ft 444 kts 300°
2026-04-30 20:35 46.73065 5.94773 36191 ft 445 kts 300°
2026-04-30 20:36 46.76100 5.86907 36194 ft 445 kts 300°
2026-04-30 20:37 46.80664 5.75156 36183 ft 445 kts 304°
2026-04-30 20:37 46.84723 5.68381 36167 ft 443 kts 318°
2026-04-30 20:38 46.89213 5.62248 36173 ft 444 kts 317°
2026-04-30 20:38 46.93736 5.56023 36179 ft 445 kts 317°
2026-04-30 20:39 47.00482 5.46723 36190 ft 446 kts 317°
2026-04-30 20:40 47.07286 5.37323 35967 ft 456 kts 318°
2026-04-30 20:40 47.09605 5.34111 35591 ft 460 kts 317°
2026-04-30 20:40 47.11934 5.30870 35209 ft 460 kts 317°
2026-04-30 20:41 47.16580 5.24395 34483 ft 458 kts 318°
2026-04-30 20:41 47.18882 5.21186 34119 ft 456 kts 318°
2026-04-30 20:41 47.20406 5.19062 33846 ft 455 kts 318°
2026-04-30 20:41 47.23437 5.14831 33304 ft 451 kts 318°
2026-04-30 20:42 47.25710 5.11650 32899 ft 448 kts 318°
2026-04-30 20:42 47.27955 5.08482 32505 ft 446 kts 317°
2026-04-30 20:42 47.31567 5.03080 31734 ft 441 kts 315°
2026-04-30 20:43 47.34344 4.98737 31021 ft 436 kts 314°
2026-04-30 20:43 47.36406 4.95479 30498 ft 434 kts 314°
2026-04-30 20:43 47.37800 4.93285 30120 ft 432 kts 314°
2026-04-30 20:44 47.41869 4.86934 29075 ft 423 kts 314°
2026-04-30 20:44 47.43896 4.83795 28570 ft 419 kts 314°
2026-04-30 20:44 47.47892 4.77615 27597 ft 412 kts 314°
2026-04-30 20:45 47.51821 4.71524 26887 ft 410 kts 315°
2026-04-30 20:45 47.53797 4.68458 26617 ft 412 kts 314°
2026-04-30 20:45 47.55749 4.65422 26349 ft 411 kts 314°
2026-04-30 20:46 47.61641 4.56226 25547 ft 408 kts 314°
2026-04-30 20:46 47.63589 4.53168 25283 ft 407 kts 314°
2026-04-30 20:47 47.67467 4.47081 24754 ft 405 kts 314°
2026-04-30 20:47 47.69398 4.44051 24488 ft 403 kts 314°
2026-04-30 20:48 47.73247 4.38009 23967 ft 401 kts 314°
2026-04-30 20:48 47.75161 4.34993 23693 ft 401 kts 314°
2026-04-30 20:48 47.77067 4.31981 23418 ft 399 kts 314°
2026-04-30 20:48 47.78969 4.28974 23157 ft 398 kts 314°
2026-04-30 20:49 47.80835 4.26022 22899 ft 396 kts 314°
2026-04-30 20:49 47.82725 4.23028 22642 ft 394 kts 314°
2026-04-30 20:49 47.84610 4.20038 22382 ft 392 kts 314°
2026-04-30 20:50 47.87904 4.13631 21869 ft 389 kts 296°
2026-04-30 20:50 47.88905 4.09960 21616 ft 387 kts 285°
2026-04-30 20:50 47.89521 4.06059 21353 ft 385 kts 281°
2026-04-30 20:50 47.90084 4.02161 21114 ft 384 kts 281°
2026-04-30 20:51 47.90647 3.98279 20869 ft 383 kts 281°
2026-04-30 20:51 47.91770 3.90542 20364 ft 380 kts 281°
2026-04-30 20:51 47.92329 3.86700 20112 ft 378 kts 282°
2026-04-30 20:52 47.92886 3.82864 19864 ft 377 kts 281°
2026-04-30 20:52 47.93437 3.79045 19619 ft 376 kts 281°
2026-04-30 20:52 47.94524 3.71455 19123 ft 373 kts 281°
2026-04-30 20:53 47.95055 3.67713 18886 ft 372 kts 281°
2026-04-30 20:53 47.95588 3.63947 18637 ft 370 kts 281°
2026-04-30 20:53 47.96191 3.60218 18386 ft 369 kts 288°
2026-04-30 20:54 47.98702 3.53592 17577 ft 368 kts 313°
2026-04-30 20:54 48.00480 3.50875 17180 ft 364 kts 316°
2026-04-30 20:54 48.02254 3.48196 16609 ft 359 kts 316°
2026-04-30 20:55 48.05725 3.42888 15653 ft 356 kts 315°
2026-04-30 20:55 48.07435 3.40260 15173 ft 350 kts 315°
2026-04-30 20:55 48.09109 3.37691 14706 ft 348 kts 315°
2026-04-30 20:56 48.12464 3.32545 13752 ft 342 kts 315°
2026-04-30 20:56 48.14035 3.29906 13275 ft 338 kts 303°
2026-04-30 20:56 48.15980 3.23557 13166 ft 335 kts 292°
2026-04-30 20:57 48.16875 3.20328 13169 ft 336 kts 292°
2026-04-30 20:57 48.17763 3.17125 13168 ft 336 kts 292°
2026-04-30 20:57 48.18661 3.13882 13169 ft 337 kts 292°
2026-04-30 20:58 48.20517 3.07150 13164 ft 354 kts 292°
2026-04-30 20:58 48.21458 3.03736 13166 ft 354 kts 292°
2026-04-30 20:58 48.22397 3.00329 13172 ft 353 kts 292°
2026-04-30 20:58 48.23339 2.96917 13168 ft 353 kts 292°
2026-04-30 20:59 48.25222 2.90149 13163 ft 354 kts 292°
2026-04-30 20:59 48.26175 2.86728 13163 ft 354 kts 292°
2026-04-30 21:00 48.28079 2.79872 13166 ft 354 kts 292°
2026-04-30 21:00 48.29975 2.73034 13162 ft 355 kts 292°
2026-04-30 21:01 48.31846 2.66273 12330 ft 349 kts 292°
2026-04-30 21:01 48.32770 2.62923 11899 ft 345 kts 292°
2026-04-30 21:01 48.34605 2.56260 10921 ft 343 kts 292°
2026-04-30 21:02 48.35512 2.52973 10572 ft 337 kts 292°
2026-04-30 21:02 48.36396 2.49762 10329 ft 328 kts 292°
2026-04-30 21:02 48.37250 2.46669 10096 ft 320 kts 292°
2026-04-30 21:02 48.38092 2.43612 9835 ft 312 kts 292°
2026-04-30 21:03 48.38916 2.40622 9567 ft 305 kts 292°
2026-04-30 21:03 48.39728 2.37706 9312 ft 299 kts 292°
2026-04-30 21:03 48.40529 2.34845 9047 ft 294 kts 292°
2026-04-30 21:03 48.41322 2.32023 8716 ft 291 kts 292°
2026-04-30 21:04 48.42110 2.29241 8378 ft 287 kts 292°
2026-04-30 21:04 48.42896 2.26494 8017 ft 284 kts 292°
2026-04-30 21:04 48.44451 2.21097 7278 ft 278 kts 292°
2026-04-30 21:05 48.45221 2.18469 6922 ft 276 kts 292°
2026-04-30 21:05 48.45999 2.15836 6548 ft 273 kts 292°
2026-04-30 21:05 48.46776 2.13232 6143 ft 272 kts 291°
2026-04-30 21:05 48.47567 2.10652 5714 ft 271 kts 292°
2026-04-30 21:06 48.48362 2.08081 5273 ft 270 kts 292°
2026-04-30 21:06 48.49142 2.05557 5099 ft 259 kts 292°
2026-04-30 21:06 48.49891 2.03140 4972 ft 247 kts 292°
2026-04-30 21:06 48.50598 2.00867 4762 ft 240 kts 292°
2026-04-30 21:07 48.51322 1.98572 4391 ft 239 kts 295°
2026-04-30 21:07 48.52409 1.96703 4071 ft 243 kts 327°
2026-04-30 21:07 48.54011 1.95983 3987 ft 244 kts
2026-04-30 21:07 48.55655 1.96603 4008 ft 244 kts 27°
2026-04-30 21:08 48.57145 1.97781 3997 ft 244 kts 31°
2026-04-30 21:08 48.58630 1.99042 4011 ft 245 kts 32°
2026-04-30 21:08 48.60111 2.00315 4000 ft 244 kts 33°
2026-04-30 21:08 48.61369 2.01973 4002 ft 239 kts 59°
2026-04-30 21:09 48.62184 2.04145 4004 ft 237 kts 65°
2026-04-30 21:09 48.62965 2.06344 3969 ft 238 kts 65°
2026-04-30 21:09 48.63747 2.08531 3724 ft 234 kts 65°
2026-04-30 21:09 48.64504 2.10646 3442 ft 230 kts 65°
2026-04-30 21:10 48.65253 2.12741 3135 ft 220 kts 66°
2026-04-30 21:10 48.65957 2.14707 2857 ft 206 kts 67°
2026-04-30 21:10 48.66608 2.16527 2611 ft 186 kts 68°
2026-04-30 21:10 48.67192 2.18159 2349 ft 168 kts 69°
2026-04-30 21:11 48.67716 2.19628 2157 ft 148 kts 69°
2026-04-30 21:11 48.68182 2.20937 1956 ft 136 kts 70°
2026-04-30 21:11 48.68619 2.22167 1788 ft 129 kts 72°
2026-04-30 21:11 48.69041 2.23356 1625 ft 128 kts 72°
2026-04-30 21:12 48.69453 2.24564 1421 ft 129 kts 69°
2026-04-30 21:12 48.69878 2.25758 1235 ft 128 kts 66°
2026-04-30 21:12 48.70301 2.26964 1023 ft 128 kts 62°
2026-04-30 21:12 48.70748 2.28126 856 ft 131 kts 64°
2026-04-30 21:13 48.71172 2.29359 719 ft 131 kts 63°
2026-04-30 21:13 48.71611 2.30587 545 ft 132 kts 64°
2026-04-30 21:13 48.72031 2.31780 373 ft 129 kts 63°
2026-04-30 21:13 48.72433 2.32922 303 ft 110 kts 63°
2026-04-30 21:14 48.72716 2.33719 299 ft 61 kts 62°
2026-04-30 21:14 48.72867 2.34149 298 ft 39 kts 62°
2026-04-30 21:14 48.72976 2.34477 294 ft 32 kts 72°
2026-04-30 21:14 48.73013 2.34781 294 ft 26 kts 82°
2026-04-30 21:15 48.73037 2.35038 298 ft 22 kts 82°
2026-04-30 21:15 48.73003 2.35251 297 ft 21 kts 130°
2026-04-30 21:15 48.72912 2.35323 295 ft 9 kts 151°
2026-04-30 21:15 48.72886 2.35405 297 ft 9 kts 128°
2026-04-30 21:16 48.72830 2.35442 294 ft 8 kts 163°
2026-04-30 21:16 48.72778 2.35464 297 ft 7 kts 162°
2026-04-30 21:16 48.72752 2.35535 297 ft 11 kts 84°
2026-04-30 21:16 48.72774 2.35658 294 ft 13 kts 75°
2026-04-30 21:17 48.72797 2.35785 298 ft 8 kts 75°
2026-04-30 21:17 48.72794 2.35817 296 ft 1 kts 129°
2026-04-30 21:17 48.72788 2.35826 298 ft 1 kts 135°
2026-04-30 21:17 48.72785 2.35829 298 ft 0 kts 138°
2026-04-30 21:18 48.72779 2.35837 298 ft 0 kts 140°
2026-04-30 21:18 48.72775 2.35842 295 ft 3 kts 141°